• In Hungary
  • List of Countries
  • For 7 days
  • Water Temperature
  • Satellite Maps
  • Weather Map
  • News
  • Weather Widgets
  • user-avatar
    Login

    Hourly Weather Galata

    Today, 14 August, Tuesday

    Time Temperature Precipitation Wind Pressure Humidity
    00:00 +20°C° 0 mm 2 mps 755 mmHg 74%
    01:00 +19°C° 0 mm 2 mps 755 mmHg 76%
    02:00 +19°C° 0 mm 2 mps 754 mmHg 81%
    03:00 +19°C° 0 mm 2 mps 755 mmHg 82%
    04:00 +19°C° 0 mm 2 mps 755 mmHg 83%
    05:00 +19°C° 0 mm 2 mps 755 mmHg 84%
    06:00 +21°C° 0 mm 2 mps 755 mmHg 77%
    07:00 +24°C° 0 mm 3 mps 755 mmHg 70%
    08:00 +26°C° 0 mm 3 mps 755 mmHg 63%
    09:00 +27°C° 0 mm 3 mps 755 mmHg 56%
    10:00 +29°C° 0 mm 4 mps 755 mmHg 49%
    11:00 +30°C° 0 mm 4 mps 755 mmHg 43%
    12:00 +32°C° 0 mm 5 mps 755 mmHg 41%
    13:00 +32°C° 0 mm 5 mps 754 mmHg 40%
    14:00 +33°C° 0 mm 5 mps 754 mmHg 38%
    15:00 +32°C° 0 mm 5 mps 754 mmHg 40%
    16:00 +30°C° 0 mm 5 mps 754 mmHg 42%
    17:00 +30°C° 0 mm 5 mps 754 mmHg 44%
    18:00 +28°C° 0 mm 4 mps 754 mmHg 53%
    19:00 +26°C° 0 mm 4 mps 754 mmHg 63%
    20:00 +24°C° 0 mm 3 mps 754 mmHg 72%
    21:00 +22°C° 0 mm 3 mps 754 mmHg 77%
    22:00 +22°C° 0 mm 3 mps 754 mmHg 82%
    23:00 +21°C° 0 mm 3 mps 754 mmHg 87%

    Tomorrow, 15 August, Wednesday

    Time Temperature Precipitation Wind Pressure Humidity
    00:00 +21°C° 0 mm 2 mps 754 mmHg 87%
    01:00 +21°C° 0 mm 2 mps 754 mmHg 88%
    02:00 +20°C° 0 mm 2 mps 754 mmHg 89%
    03:00 +20°C° 0 mm 2 mps 753 mmHg 89%
    04:00 +20°C° 0 mm 3 mps 753 mmHg 88%
    05:00 +20°C° 0 mm 3 mps 753 mmHg 88%
    06:00 +22°C° 0 mm 3 mps 753 mmHg 79%
    07:00 +25°C° 0 mm 3 mps 753 mmHg 71%
    08:00 +26°C° 0 mm 3 mps 754 mmHg 62%
    09:00 +28°C° 0 mm 4 mps 754 mmHg 54%
    10:00 +30°C° 0 mm 4 mps 754 mmHg 45%
    11:00 +33°C° 0 mm 5 mps 754 mmHg 37%
    12:00 +33°C° 0 mm 5 mps 754 mmHg 35%
    13:00 +34°C° 0 mm 5 mps 753 mmHg 33%
    14:00 +34°C° 0 mm 5 mps 753 mmHg 32%
    15:00 +34°C° 0 mm 5 mps 753 mmHg 34%
    16:00 +33°C° 0 mm 5 mps 753 mmHg 36%
    17:00 +33°C° 0 mm 5 mps 753 mmHg 39%
    18:00 +30°C° 0 mm 4 mps 753 mmHg 47%
    19:00 +28°C° 0 mm 4 mps 753 mmHg 56%
    20:00 +25°C° 0 mm 3 mps 753 mmHg 65%
    21:00 +25°C° 0 mm 3 mps 753 mmHg 66%
    22:00 +24°C° 0 mm 3 mps 753 mmHg 67%
    23:00 +24°C° 0 mm 3 mps 753 mmHg 68%

    Day after tomorrow, 16 August, Thursday

    Time Temperature Precipitation Wind Pressure Humidity
    00:00 +22°C° 0 mm 3 mps 753 mmHg 67%
    01:00 +22°C° 0 mm 3 mps 753 mmHg 66%
    02:00 +22°C° 0 mm 3 mps 752 mmHg 65%
    03:00 +22°C° 0 mm 3 mps 752 mmHg 64%
    04:00 +21°C° 0 mm 4 mps 752 mmHg 63%
    05:00 +21°C° 0 mm 4 mps 752 mmHg 63%
    06:00 +23°C° 0 mm 4 mps 752 mmHg 59%
    07:00 +25°C° 0 mm 5 mps 753 mmHg 56%
    08:00 +27°C° 0 mm 5 mps 753 mmHg 52%
    09:00 +29°C° 0 mm 5 mps 753 mmHg 48%
    10:00 +32°C° 0 mm 5 mps 753 mmHg 44%
    11:00 +34°C° 0 mm 5 mps 753 mmHg 39%
    12:00 +34°C° 0 mm 5 mps 753 mmHg 38%
    13:00 +35°C° 0 mm 5 mps 753 mmHg 36%
    14:00 +35°C° 0 mm 5 mps 752 mmHg 34%
    15:00 +35°C° 0 mm 5 mps 752 mmHg 36%
    16:00 +34°C° 0 mm 5 mps 752 mmHg 37%
    17:00 +34°C° 0 mm 5 mps 752 mmHg 38%
    18:00 +30°C° 0 mm 4 mps 752 mmHg 44%
    19:00 +28°C° 0 mm 3 mps 752 mmHg 50%
    20:00 +26°C° 0 mm 3 mps 752 mmHg 56%
    21:00 +26°C° 0 mm 2 mps 753 mmHg 56%
    22:00 +25°C° 0 mm 2 mps 753 mmHg 56%
    23:00 +25°C° 0 mm 2 mps 753 mmHg 56%

    17 August, Friday

    Time Temperature Precipitation Wind Pressure Humidity
    00:00 +24°C° 0 mm 2 mps 752 mmHg 55%
    01:00 +24°C° 0 mm 3 mps 752 mmHg 54%
    02:00 +24°C° 0 mm 3 mps 752 mmHg 53%
    03:00 +22°C° 0 mm 4 mps 752 mmHg 55%
    04:00 +22°C° 0 mm 4 mps 752 mmHg 57%
    05:00 +22°C° 0 mm 4 mps 752 mmHg 59%
    06:00 +23°C° 0 mm 4 mps 752 mmHg 58%
    07:00 +26°C° 0 mm 4 mps 753 mmHg 56%
    08:00 +27°C° 0 mm 4 mps 753 mmHg 55%
    09:00 +29°C° 0 mm 4 mps 753 mmHg 48%
    10:00 +32°C° 0 mm 4 mps 753 mmHg 42%
    11:00 +34°C° 0 mm 3 mps 753 mmHg 35%
    12:00 +35°C° 0 mm 3 mps 753 mmHg 33%
    13:00 +36°C° 0 mm 3 mps 752 mmHg 30%
    14:00 +36°C° 0 mm 3 mps 752 mmHg 28%
    15:00 +36°C° 0 mm 3 mps 752 mmHg 29%
    16:00 +35°C° 0 mm 3 mps 752 mmHg 31%
    17:00 +35°C° 0 mm 2 mps 752 mmHg 32%
    18:00 +32°C° 0 mm 2 mps 752 mmHg 38%
    19:00 +30°C° 0 mm 2 mps 752 mmHg 43%
    20:00 +28°C° 0 mm 2 mps 753 mmHg 48%
    21:00 +27°C° 0 mm 2 mps 753 mmHg 52%
    22:00 +26°C° 0 mm 2 mps 753 mmHg 55%
    23:00 +25°C° 0 mm 2 mps 753 mmHg 59%

    18 August, Saturday

    Time Temperature Precipitation Wind Pressure Humidity
    00:00 +25°C° 0 mm 2 mps 753 mmHg 59%
    01:00 +25°C° 0 mm 2 mps 753 mmHg 59%
    02:00 +24°C° 0 mm 3 mps 753 mmHg 59%
    03:00 +24°C° 0 mm 3 mps 753 mmHg 59%
    04:00 +24°C° 0 mm 3 mps 753 mmHg 58%
    05:00 +24°C° 0 mm 3 mps 753 mmHg 58%
    06:00 +25°C° 0 mm 4 mps 753 mmHg 55%
    07:00 +27°C° 0 mm 4 mps 753 mmHg 53%
    08:00 +28°C° 0 mm 4 mps 753 mmHg 51%
    09:00 +30°C° 0 mm 4 mps 753 mmHg 44%
    10:00 +33°C° 0 mm 4 mps 753 mmHg 38%
    11:00 +36°C° 0 mm 4 mps 753 mmHg 31%
    12:00 +36°C° 0 mm 4 mps 753 mmHg 31%
    13:00 +36°C° 0 mm 5 mps 753 mmHg 31%
    14:00 +36°C° 0 mm 5 mps 753 mmHg 30%
    15:00 +35°C° 0 mm 5 mps 753 mmHg 32%
    16:00 +34°C° 0 mm 5 mps 752 mmHg 33%
    17:00 +34°C° 0 mm 5 mps 752 mmHg 35%
    18:00 +32°C° 0 mm 5 mps 753 mmHg 41%
    19:00 +29°C° 0 mm 4 mps 753 mmHg 47%
    20:00 +27°C° 0 mm 4 mps 753 mmHg 53%
    21:00 +26°C° 0 mm 4 mps 753 mmHg 55%
    22:00 +26°C° 0 mm 3 mps 753 mmHg 58%
    23:00 +25°C° 0 mm 3 mps 753 mmHg 60%

    19 August, Sunday

    Time Temperature Precipitation Wind Pressure Humidity
    00:00 +25°C° 0 mm 4 mps 753 mmHg 59%
    01:00 +23°C° 0 mm 4 mps 753 mmHg 58%
    02:00 +23°C° 0 mm 4 mps 753 mmHg 58%
    03:00 +23°C° 0 mm 4 mps 753 mmHg 57%
    04:00 +22°C° 0 mm 5 mps 753 mmHg 57%
    05:00 +22°C° 0 mm 5 mps 753 mmHg 57%
    06:00 +25°C° 0 mm 4 mps 753 mmHg 54%
    07:00 +27°C° 0 mm 4 mps 753 mmHg 51%
    08:00 +28°C° 0 mm 4 mps 753 mmHg 48%
    09:00 +30°C° 0 mm 5 mps 753 mmHg 42%
    10:00 +34°C° 0 mm 5 mps 753 mmHg 35%
    11:00 +36°C° 0 mm 6 mps 753 mmHg 29%
    12:00 +36°C° 0 mm 6 mps 753 mmHg 29%
    13:00 +36°C° 0 mm 7 mps 753 mmHg 29%
    14:00 +36°C° 0 mm 7 mps 753 mmHg 29%
    15:00 +35°C° 0 mm 7 mps 753 mmHg 32%
    16:00 +34°C° 0 mm 7 mps 753 mmHg 36%
    17:00 +33°C° 0 mm 6 mps 753 mmHg 39%
    18:00 +30°C° 0.1 mm 5 mps 753 mmHg 49%
    19:00 +28°C° 0.1 mm 4 mps 754 mmHg 59%
    20:00 +26°C° 0.1 mm 3 mps 754 mmHg 69%
    21:00 +25°C° 0.1 mm 3 mps 754 mmHg 71%
    22:00 +25°C° 0.1 mm 2 mps 754 mmHg 73%
    23:00 +25°C° 0.1 mm 2 mps 754 mmHg 75%
    Show more